ADN75C LEPA-EDDF

Flight info

Callsign ADN75C
Flight time 2h 15m
Altitude 30000
Route MEROS DCT LAPIT DCT CHELY DCT LUMAS DCT MAXIR DCT LUSOL DCT BODRU DCT OKTET DCT IRMAR DCT KINES DCT VANAS DCT MOBLO DCT UBIMA DCT SOSAL DCT KORED DCT BERSU N871 DITON/N0411F290 DCT LADOL/N0409F300 T163 EMPAX EMPAX5B
Aircraft J328/M-SDGHIRWYZ/LB1

Departure

Time 2026-05-05 18:08
Airport Palma de Mallorca Airport (LEPA)

Arrival

Time 2026-05-05 20:23
Airport Frankfurt Main Airport (EDDF)
Time Latitude Longitude Altitude Speed Heading
2026-05-05 17:45 39.54527 2.71444 29 ft 0 kts 334°
2026-05-05 17:59 39.54528 2.71443 29 ft 1 kts 334°
2026-05-05 18:00 39.54546 2.71428 29 ft 6 kts 326°
2026-05-05 18:00 39.54593 2.71428 28 ft 5 kts 52°
2026-05-05 18:00 39.54619 2.71479 28 ft 7 kts 38°
2026-05-05 18:00 39.54640 2.71481 27 ft 5 kts 330°
2026-05-05 18:01 39.54701 2.71490 27 ft 16 kts 57°
2026-05-05 18:01 39.54774 2.71641 27 ft 23 kts 59°
2026-05-05 18:01 39.54864 2.71829 27 ft 24 kts 57°
2026-05-05 18:01 39.54950 2.72009 26 ft 23 kts 58°
2026-05-05 18:02 39.55031 2.72181 30 ft 22 kts 57°
2026-05-05 18:02 39.55123 2.72371 26 ft 28 kts 58°
2026-05-05 18:02 39.55229 2.72595 28 ft 29 kts 58°
2026-05-05 18:02 39.55331 2.72811 26 ft 27 kts 59°
2026-05-05 18:03 39.55426 2.73018 27 ft 26 kts 59°
2026-05-05 18:03 39.55518 2.73209 26 ft 24 kts 58°
2026-05-05 18:03 39.55601 2.73390 26 ft 23 kts 59°
2026-05-05 18:03 39.55680 2.73557 26 ft 21 kts 58°
2026-05-05 18:04 39.55757 2.73714 25 ft 20 kts 59°
2026-05-05 18:04 39.55827 2.73865 25 ft 17 kts 58°
2026-05-05 18:04 39.55891 2.73896 23 ft 11 kts 330°
2026-05-05 18:04 39.55924 2.73871 23 ft 0 kts 329°
2026-05-05 18:05 39.55925 2.73871 23 ft 1 kts 329°
2026-05-05 18:05 39.55957 2.73846 22 ft 8 kts 329°
2026-05-05 18:05 39.56006 2.73802 21 ft 8 kts 301°
2026-05-05 18:06 39.56007 2.73786 22 ft 0 kts 235°
2026-05-05 18:07 39.55980 2.73733 22 ft 38 kts 237°
2026-05-05 18:07 39.55667 2.73082 88 ft 119 kts 236°
2026-05-05 18:07 39.55146 2.72006 501 ft 162 kts 236°
2026-05-05 18:08 39.54483 2.70672 1183 ft 186 kts 236°
2026-05-05 18:08 39.53740 2.69251 1910 ft 188 kts 237°
2026-05-05 18:08 39.52973 2.67815 2425 ft 203 kts 236°
2026-05-05 18:08 39.52124 2.66225 2877 ft 221 kts 237°
2026-05-05 18:09 39.51202 2.64504 3613 ft 231 kts 237°
2026-05-05 18:09 39.50308 2.62834 4280 ft 223 kts 237°
2026-05-05 18:09 39.49180 2.61401 4367 ft 243 kts 212°
2026-05-05 18:09 39.47628 2.60460 4821 ft 252 kts 209°
2026-05-05 18:10 39.46028 2.59415 5413 ft 260 kts 210°
2026-05-05 18:10 39.44407 2.58360 6037 ft 263 kts 210°
2026-05-05 18:10 39.42689 2.57512 6565 ft 272 kts 190°
2026-05-05 18:10 39.40819 2.57994 7131 ft 284 kts 155°
2026-05-05 18:11 39.39154 2.59403 7671 ft 287 kts 150°
2026-05-05 18:11 39.37483 2.60814 8216 ft 288 kts 151°
2026-05-05 18:11 39.35892 2.62428 8745 ft 296 kts 138°
2026-05-05 18:11 39.34503 2.64365 9956 ft 294 kts 137°
2026-05-05 18:12 39.33102 2.66318 10945 ft 299 kts 138°
2026-05-05 18:12 39.31664 2.68289 11900 ft 303 kts 139°
2026-05-05 18:12 39.30188 2.70256 12812 ft 307 kts 141°
2026-05-05 18:12 39.28836 2.72434 13664 ft 322 kts 121°
2026-05-05 18:13 39.28375 2.75331 14363 ft 341 kts 90°
2026-05-05 18:13 39.28985 2.78281 15021 ft 351 kts 62°
2026-05-05 18:13 39.30226 2.80442 15570 ft 353 kts 45°
2026-05-05 18:13 39.30798 2.81216 15780 ft 354 kts 43°
2026-05-05 18:14 39.31517 2.82151 16038 ft 356 kts 42°
2026-05-05 18:14 39.33314 2.84376 16674 ft 360 kts 40°
2026-05-05 18:14 39.35166 2.86579 17336 ft 364 kts 39°
2026-05-05 18:14 39.37038 2.88803 18010 ft 367 kts 39°
2026-05-05 18:15 39.38908 2.91059 18615 ft 365 kts 40°
2026-05-05 18:15 39.40712 2.93277 19148 ft 352 kts 40°
2026-05-05 18:15 39.42451 2.95479 19465 ft 347 kts 41°
2026-05-05 18:15 39.44200 2.97706 19745 ft 359 kts 41°
2026-05-05 18:16 39.46012 3.00012 20035 ft 371 kts 41°
2026-05-05 18:16 39.47878 3.02388 20323 ft 380 kts 41°
2026-05-05 18:16 39.49782 3.04813 20615 ft 388 kts 41°
2026-05-05 18:16 39.51686 3.07274 20897 ft 395 kts 42°
2026-05-05 18:17 39.53638 3.09825 21185 ft 402 kts 43°
2026-05-05 18:17 39.55630 3.12419 21473 ft 408 kts 42°
2026-05-05 18:17 39.57664 3.15031 21759 ft 414 kts 41°
2026-05-05 18:17 39.59733 3.17675 22055 ft 420 kts 41°
2026-05-05 18:18 39.61820 3.20371 22352 ft 426 kts 42°
2026-05-05 18:18 39.63922 3.23122 22655 ft 432 kts 43°
2026-05-05 18:18 39.66059 3.25903 22848 ft 440 kts 42°
2026-05-05 18:18 39.68261 3.28730 22927 ft 450 kts 42°
2026-05-05 18:19 39.70510 3.31637 22951 ft 461 kts 42°
2026-05-05 18:19 39.72796 3.34625 22961 ft 472 kts 43°
2026-05-05 18:19 39.75135 3.37685 22973 ft 482 kts 43°
2026-05-05 18:19 39.77476 3.40752 23306 ft 482 kts 43°
2026-05-05 18:20 39.79838 3.43885 23774 ft 476 kts 43°
2026-05-05 18:20 39.82135 3.46948 24030 ft 478 kts 42°
2026-05-05 18:20 39.84499 3.49998 24316 ft 479 kts 42°
2026-05-05 18:20 39.86877 3.53046 24572 ft 481 kts 42°
2026-05-05 18:21 39.89272 3.56105 24810 ft 484 kts 42°
2026-05-05 18:21 39.91669 3.59207 25042 ft 486 kts 43°
2026-05-05 18:21 39.94059 3.62338 25267 ft 489 kts 43°
2026-05-05 18:21 39.96459 3.65495 25497 ft 491 kts 43°
2026-05-05 18:22 39.98868 3.68665 25706 ft 493 kts 43°
2026-05-05 18:22 40.01287 3.71851 25922 ft 495 kts 43°
2026-05-05 18:22 40.03717 3.75052 26123 ft 497 kts 43°
2026-05-05 18:22 40.06156 3.78267 26320 ft 499 kts 43°
2026-05-05 18:23 40.08588 3.81473 26507 ft 501 kts 43°
2026-05-05 18:23 40.11047 3.84714 26684 ft 503 kts 43°
2026-05-05 18:23 40.13517 3.87971 26892 ft 504 kts 43°
2026-05-05 18:23 40.15986 3.91227 27125 ft 504 kts 43°
2026-05-05 18:24 40.18456 3.94485 27352 ft 504 kts 43°
2026-05-05 18:24 40.20926 3.97743 27584 ft 504 kts 43°
2026-05-05 18:24 40.23401 4.01006 27809 ft 505 kts 43°
2026-05-05 18:24 40.25873 4.04268 28029 ft 505 kts 43°
2026-05-05 18:25 40.28335 4.07563 28244 ft 505 kts 44°
2026-05-05 18:25 40.29957 4.09755 28385 ft 505 kts 44°
2026-05-05 18:25 40.33229 4.14119 28671 ft 506 kts 43°
2026-05-05 18:25 40.35710 4.17404 28869 ft 506 kts 43°
2026-05-05 18:26 40.38186 4.20685 29079 ft 506 kts 43°
2026-05-05 18:26 40.40646 4.24001 29273 ft 507 kts 44°
2026-05-05 18:26 40.43099 4.27323 29479 ft 507 kts 44°
2026-05-05 18:26 40.45560 4.30640 29677 ft 507 kts 43°
2026-05-05 18:27 40.48094 4.33792 29855 ft 505 kts 35°
2026-05-05 18:27 40.51065 4.36157 29996 ft 496 kts 18°
2026-05-05 18:27 40.54292 4.37640 30167 ft 489 kts
2026-05-05 18:27 40.57601 4.38654 30330 ft 485 kts
2026-05-05 18:28 40.63973 4.41957 30605 ft 498 kts 21°
2026-05-05 18:28 40.67099 4.43963 30769 ft 498 kts 21°
2026-05-05 18:28 40.70240 4.45907 30875 ft 499 kts 20°
2026-05-05 18:29 40.76629 4.49608 30944 ft 504 kts 18°
2026-05-05 18:29 40.83043 4.53150 30949 ft 492 kts 17°
2026-05-05 18:30 40.89308 4.56654 30953 ft 487 kts 18°
2026-05-05 18:30 40.95517 4.60189 30954 ft 484 kts 18°
2026-05-05 18:31 41.01695 4.63638 30957 ft 481 kts 18°
2026-05-05 18:31 41.07824 4.67146 30960 ft 478 kts 18°
2026-05-05 18:32 41.13938 4.70577 30962 ft 475 kts 18°
2026-05-05 18:32 41.19994 4.74054 30965 ft 473 kts 18°
2026-05-05 18:33 41.25987 4.77459 31203 ft 468 kts 18°
2026-05-05 18:33 41.28982 4.79144 31452 ft 467 kts 18°
2026-05-05 18:33 41.31971 4.80848 31690 ft 467 kts 18°
2026-05-05 18:34 41.34951 4.82575 31923 ft 467 kts 18°
2026-05-05 18:34 41.37931 4.84306 32155 ft 467 kts 18°
2026-05-05 18:34 41.40950 4.86020 31999 ft 477 kts 17°
2026-05-05 18:34 41.44032 4.87769 31968 ft 484 kts 18°
2026-05-05 18:35 41.49213 4.90753 31964 ft 493 kts 18°
2026-05-05 18:35 41.55566 4.94415 31973 ft 500 kts 18°
2026-05-05 18:36 41.63048 4.98726 31974 ft 507 kts 18°
2026-05-05 18:36 41.68501 5.01866 31975 ft 512 kts 18°
2026-05-05 18:37 41.75072 5.05668 31974 ft 517 kts 19°
2026-05-05 18:37 41.81683 5.09553 31970 ft 521 kts 18°
2026-05-05 18:38 41.88271 5.13362 31968 ft 517 kts 18°
2026-05-05 18:38 41.94864 5.17194 31962 ft 513 kts 19°
2026-05-05 18:39 42.01346 5.21019 31959 ft 507 kts 19°
2026-05-05 18:39 42.07829 5.24802 31928 ft 507 kts 19°
2026-05-05 18:40 42.14268 5.28560 31912 ft 507 kts 18°
2026-05-05 18:40 42.20733 5.32379 31913 ft 508 kts 19°
2026-05-05 18:41 42.27193 5.36220 31908 ft 507 kts 19°
2026-05-05 18:41 42.33657 5.40021 31910 ft 507 kts 18°
2026-05-05 18:42 42.40139 5.43835 31910 ft 507 kts 18°
2026-05-05 18:42 42.46593 5.47713 31917 ft 507 kts 19°
2026-05-05 18:43 42.53013 5.51530 31909 ft 507 kts 19°
2026-05-05 18:43 42.59498 5.55381 31920 ft 507 kts 19°
2026-05-05 18:44 42.65945 5.59294 31920 ft 507 kts 19°
2026-05-05 18:44 42.72418 5.63134 31916 ft 508 kts 19°
2026-05-05 18:45 42.78878 5.67048 31919 ft 508 kts 19°
2026-05-05 18:45 42.85291 5.70944 31923 ft 508 kts 19°
2026-05-05 18:46 42.91674 5.74751 31925 ft 508 kts 19°
2026-05-05 18:46 42.98146 5.78681 31933 ft 508 kts 20°
2026-05-05 18:47 43.04610 5.82616 31939 ft 508 kts 20°
2026-05-05 18:47 43.11083 5.86555 31949 ft 508 kts 19°
2026-05-05 18:48 43.17511 5.90468 31974 ft 509 kts 20°
2026-05-05 18:48 43.24036 5.94436 31970 ft 510 kts 20°
2026-05-05 18:49 43.30493 5.98363 31944 ft 510 kts 20°
2026-05-05 18:49 43.36991 6.02285 31933 ft 508 kts 17°
2026-05-05 18:50 43.40337 6.03734 31941 ft 501 kts
2026-05-05 18:50 43.43750 6.04537 31938 ft 495 kts 360°
2026-05-05 18:50 43.50585 6.05403 31944 ft 495 kts
2026-05-05 18:51 43.57359 6.07070 31939 ft 498 kts
2026-05-05 18:51 43.64171 6.08842 31939 ft 497 kts
2026-05-05 18:52 43.70989 6.10483 31939 ft 497 kts
2026-05-05 18:52 43.77811 6.12055 31942 ft 497 kts
2026-05-05 18:53 43.84644 6.13713 31935 ft 498 kts
2026-05-05 18:53 43.91469 6.15339 31943 ft 497 kts
2026-05-05 18:54 43.98288 6.16938 31935 ft 497 kts
2026-05-05 18:54 44.05092 6.18572 31943 ft 496 kts
2026-05-05 18:55 44.11883 6.20194 31947 ft 495 kts
2026-05-05 18:55 44.18635 6.21792 31929 ft 494 kts
2026-05-05 18:56 44.25424 6.23413 31947 ft 493 kts
2026-05-05 18:56 44.32158 6.25072 31962 ft 488 kts
2026-05-05 18:57 44.38846 6.26654 31952 ft 486 kts
2026-05-05 18:57 44.45459 6.28282 31974 ft 484 kts
2026-05-05 18:58 44.52074 6.29863 31941 ft 482 kts
2026-05-05 18:58 44.58675 6.31517 31978 ft 480 kts
2026-05-05 18:59 44.65246 6.33095 31948 ft 478 kts
2026-05-05 18:59 44.71800 6.34681 31960 ft 477 kts
2026-05-05 19:00 44.78335 6.36318 31994 ft 476 kts
2026-05-05 19:00 44.81608 6.37120 32214 ft 475 kts
2026-05-05 19:00 44.84862 6.37916 32442 ft 475 kts
2026-05-05 19:01 44.88127 6.38709 32608 ft 475 kts
2026-05-05 19:01 44.91345 6.39488 32764 ft 475 kts
2026-05-05 19:01 44.94612 6.40290 32951 ft 475 kts
2026-05-05 19:01 44.97863 6.41088 33136 ft 474 kts
2026-05-05 19:02 45.01110 6.41887 33369 ft 473 kts
2026-05-05 19:02 45.04347 6.42684 33573 ft 471 kts
2026-05-05 19:02 45.07587 6.43477 33798 ft 471 kts
2026-05-05 19:02 45.10813 6.44269 34055 ft 470 kts
2026-05-05 19:03 45.14032 6.45071 34266 ft 469 kts
2026-05-05 19:03 45.17234 6.45890 34519 ft 466 kts
2026-05-05 19:03 45.20418 6.46713 34751 ft 463 kts
2026-05-05 19:03 45.23584 6.47525 34960 ft 462 kts
2026-05-05 19:04 45.26746 6.48325 35165 ft 461 kts
2026-05-05 19:04 45.29903 6.49116 35380 ft 460 kts
2026-05-05 19:04 45.33015 6.49889 35574 ft 459 kts
2026-05-05 19:04 45.36158 6.50658 35742 ft 458 kts
2026-05-05 19:05 45.39299 6.51419 35926 ft 457 kts
2026-05-05 19:05 45.42433 6.52198 36099 ft 456 kts
2026-05-05 19:05 45.48731 6.53818 36027 ft 465 kts
2026-05-05 19:06 45.55166 6.55465 35961 ft 472 kts
2026-05-05 19:06 45.61605 6.57092 35945 ft 469 kts
2026-05-05 19:07 45.68043 6.58722 35952 ft 467 kts
2026-05-05 19:07 45.74393 6.60324 35944 ft 466 kts
2026-05-05 19:08 45.80527 6.63253 35947 ft 473 kts 35°
2026-05-05 19:08 45.82916 6.66479 35950 ft 472 kts 48°
2026-05-05 19:08 45.85155 6.69901 35946 ft 470 kts 40°
2026-05-05 19:09 45.90463 6.75342 35954 ft 468 kts 33°
2026-05-05 19:09 45.95797 6.80724 35945 ft 468 kts 35°
2026-05-05 19:10 46.00961 6.86320 35934 ft 467 kts 37°
2026-05-05 19:10 46.06113 6.92038 35928 ft 466 kts 37°
2026-05-05 19:11 46.11243 6.97750 35914 ft 465 kts 37°
2026-05-05 19:11 46.16349 7.03442 35927 ft 463 kts 37°
2026-05-05 19:12 46.21447 7.09119 35952 ft 462 kts 37°
2026-05-05 19:12 46.26497 7.14757 35961 ft 461 kts 37°
2026-05-05 19:13 46.31573 7.20442 35963 ft 461 kts 37°
2026-05-05 19:13 46.36647 7.26133 35961 ft 461 kts 37°
2026-05-05 19:14 46.41716 7.31817 35959 ft 461 kts 37°
2026-05-05 19:14 46.46791 7.37519 35949 ft 461 kts 37°
2026-05-05 19:15 46.51832 7.43202 35940 ft 460 kts 37°
2026-05-05 19:15 46.56886 7.48905 35923 ft 460 kts 37°
2026-05-05 19:16 46.61942 7.54618 35945 ft 461 kts 37°
2026-05-05 19:16 46.67014 7.60350 35930 ft 461 kts 37°
2026-05-05 19:17 46.72084 7.66087 35916 ft 461 kts 37°
2026-05-05 19:17 46.77125 7.71804 35923 ft 461 kts 38°
2026-05-05 19:18 46.82172 7.77626 35920 ft 462 kts 37°
2026-05-05 19:18 46.87230 7.83393 35925 ft 462 kts 38°
2026-05-05 19:19 46.92272 7.89249 35934 ft 461 kts 38°
2026-05-05 19:19 46.97299 7.95011 35929 ft 461 kts 37°
2026-05-05 19:20 47.02332 8.00842 35931 ft 461 kts 38°
2026-05-05 19:20 47.07375 8.06668 35926 ft 461 kts 38°
2026-05-05 19:21 47.11548 8.11509 35933 ft 460 kts 38°
2026-05-05 19:21 47.17377 8.18343 35932 ft 460 kts 38°
2026-05-05 19:22 47.21579 8.23248 35935 ft 460 kts 38°
2026-05-05 19:22 47.26565 8.29066 35933 ft 460 kts 38°
2026-05-05 19:23 47.31796 8.34434 35912 ft 458 kts 28°
2026-05-05 19:23 47.37494 8.38680 35906 ft 457 kts 24°
2026-05-05 19:24 47.43275 8.42607 35906 ft 457 kts 24°
2026-05-05 19:24 47.49040 8.46597 35900 ft 457 kts 24°
2026-05-05 19:25 47.54782 8.50637 35902 ft 457 kts 25°
2026-05-05 19:25 47.60500 8.54762 35901 ft 457 kts 25°
2026-05-05 19:26 47.66239 8.58836 35904 ft 456 kts 25°
2026-05-05 19:26 47.71904 8.62939 35900 ft 456 kts 25°
2026-05-05 19:27 47.77623 8.67027 35901 ft 456 kts 25°
2026-05-05 19:27 47.83332 8.71147 35897 ft 455 kts 25°
2026-05-05 19:28 47.89266 8.74178 35904 ft 450 kts
2026-05-05 19:28 47.92369 8.74962 35788 ft 451 kts
2026-05-05 19:28 47.95462 8.75763 35727 ft 450 kts
2026-05-05 19:29 48.01589 8.77613 35544 ft 448 kts 11°
2026-05-05 19:29 48.04591 8.78639 35407 ft 447 kts 12°
2026-05-05 19:29 48.07619 8.79718 35309 ft 446 kts 12°
2026-05-05 19:30 48.10634 8.80808 35199 ft 445 kts 12°
2026-05-05 19:30 48.13640 8.81890 34901 ft 443 kts 12°
2026-05-05 19:30 48.16628 8.82929 34603 ft 439 kts 11°
2026-05-05 19:30 48.19599 8.83953 34190 ft 435 kts 12°
2026-05-05 19:31 48.22533 8.84992 33771 ft 432 kts 12°
2026-05-05 19:31 48.25440 8.86036 33393 ft 428 kts 12°
2026-05-05 19:31 48.28319 8.87073 33042 ft 424 kts 12°
2026-05-05 19:31 48.31081 8.88064 32715 ft 421 kts 12°
2026-05-05 19:32 48.33932 8.89077 32359 ft 418 kts 12°
2026-05-05 19:32 48.36757 8.90076 32003 ft 415 kts 12°
2026-05-05 19:32 48.39558 8.91064 31641 ft 412 kts 12°
2026-05-05 19:32 48.42348 8.92042 31273 ft 410 kts 12°
2026-05-05 19:33 48.45121 8.93009 30906 ft 407 kts 12°
2026-05-05 19:33 48.47833 8.93947 30534 ft 404 kts 12°
2026-05-05 19:33 48.50561 8.94896 30152 ft 401 kts 13°
2026-05-05 19:33 48.53270 8.95869 29739 ft 398 kts 13°
2026-05-05 19:34 48.55985 8.96850 29398 ft 406 kts 13°
2026-05-05 19:34 48.58798 8.97874 29218 ft 418 kts 14°
2026-05-05 19:34 48.61662 8.98937 28843 ft 434 kts 14°
2026-05-05 19:35 48.67500 9.01007 27943 ft 429 kts 13°
2026-05-05 19:35 48.70385 9.02017 27418 ft 421 kts 13°
2026-05-05 19:35 48.73218 9.03017 26720 ft 416 kts 13°
2026-05-05 19:35 48.76028 9.04013 26008 ft 411 kts 13°
2026-05-05 19:36 48.78796 9.04994 25499 ft 407 kts 13°
2026-05-05 19:36 48.81512 9.05957 25039 ft 404 kts 13°
2026-05-05 19:36 48.84242 9.06925 24560 ft 401 kts 13°
2026-05-05 19:36 48.86956 9.07884 24089 ft 398 kts 13°
2026-05-05 19:37 48.89670 9.08631 23609 ft 395 kts
2026-05-05 19:37 48.92395 9.09135 23089 ft 392 kts
2026-05-05 19:37 48.95099 9.09542 22536 ft 388 kts
2026-05-05 19:37 48.97786 9.09910 21987 ft 385 kts
2026-05-05 19:38 49.00445 9.10236 21432 ft 382 kts
2026-05-05 19:38 49.03079 9.10586 20908 ft 378 kts
2026-05-05 19:38 49.05661 9.10940 20390 ft 376 kts
2026-05-05 19:38 49.08255 9.11306 19866 ft 373 kts
2026-05-05 19:39 49.10829 9.11677 19346 ft 370 kts
2026-05-05 19:39 49.13393 9.12042 18826 ft 367 kts
2026-05-05 19:39 49.15937 9.12376 18309 ft 365 kts
2026-05-05 19:39 49.18464 9.12722 18099 ft 364 kts
2026-05-05 19:40 49.20985 9.13093 17939 ft 363 kts
2026-05-05 19:40 49.23502 9.13472 17770 ft 363 kts
2026-05-05 19:40 49.25989 9.13838 17219 ft 360 kts
2026-05-05 19:40 49.28482 9.14255 16557 ft 357 kts
2026-05-05 19:41 49.30881 9.14941 15977 ft 354 kts 10°
2026-05-05 19:41 49.33280 9.15757 15410 ft 351 kts 12°
2026-05-05 19:41 49.35646 9.16622 14845 ft 348 kts 12°
2026-05-05 19:41 49.37998 9.17481 14289 ft 345 kts 11°
2026-05-05 19:42 49.40321 9.18329 13764 ft 342 kts 11°
2026-05-05 19:42 49.42630 9.19178 13203 ft 339 kts 11°
2026-05-05 19:42 49.44917 9.20015 12634 ft 336 kts 11°
2026-05-05 19:42 49.47190 9.20817 12076 ft 334 kts 11°
2026-05-05 19:43 49.49447 9.21611 11531 ft 331 kts 11°
2026-05-05 19:43 49.51683 9.22398 11011 ft 328 kts 11°
2026-05-05 19:43 49.53905 9.23182 10486 ft 326 kts 11°
2026-05-05 19:43 49.56102 9.23960 10130 ft 320 kts 11°
2026-05-05 19:44 49.58240 9.24721 9965 ft 316 kts 11°
2026-05-05 19:44 49.60410 9.25479 9901 ft 322 kts 10°
2026-05-05 19:44 49.62569 9.26243 9883 ft 322 kts 11°
2026-05-05 19:44 49.64745 9.27027 9859 ft 320 kts 11°
2026-05-05 19:45 49.66908 9.27828 9845 ft 319 kts 11°
2026-05-05 19:45 49.69064 9.28605 9836 ft 317 kts 11°
2026-05-05 19:45 49.71209 9.29369 9834 ft 316 kts 11°
2026-05-05 19:45 49.73338 9.30124 9842 ft 314 kts 11°
2026-05-05 19:46 49.75467 9.30884 9839 ft 313 kts 11°
2026-05-05 19:46 49.77565 9.31648 9816 ft 302 kts 11°
2026-05-05 19:46 49.79535 9.32541 9821 ft 292 kts 25°
2026-05-05 19:46 49.81044 9.34645 9823 ft 298 kts 59°
2026-05-05 19:47 49.81857 9.37585 9846 ft 305 kts 71°
2026-05-05 19:47 49.82634 9.40719 9855 ft 318 kts 65°
2026-05-05 19:47 49.84026 9.43395 9858 ft 327 kts 34°
2026-05-05 19:47 49.86062 9.44690 9864 ft 307 kts
2026-05-05 19:48 49.88104 9.44492 9840 ft 287 kts 346°
2026-05-05 19:48 49.90069 9.43884 9462 ft 287 kts 345°
2026-05-05 19:48 49.92014 9.43241 9150 ft 284 kts 344°
2026-05-05 19:48 49.93941 9.42584 8818 ft 283 kts 344°
2026-05-05 19:49 49.95861 9.41923 8501 ft 281 kts 344°
2026-05-05 19:49 49.97122 9.41485 8304 ft 280 kts 344°
2026-05-05 19:49 49.99553 9.40634 8005 ft 248 kts 344°
2026-05-05 19:49 50.01202 9.40066 7889 ft 241 kts 344°
2026-05-05 19:50 50.02827 9.39506 7856 ft 237 kts 343°
2026-05-05 19:50 50.04421 9.38956 7838 ft 233 kts 344°
2026-05-05 19:50 50.05986 9.38416 7822 ft 228 kts 343°
2026-05-05 19:50 50.07328 9.37332 7819 ft 213 kts 308°
2026-05-05 19:51 50.08267 9.35568 7824 ft 210 kts 306°
2026-05-05 19:51 50.09188 9.33816 7820 ft 207 kts 305°
2026-05-05 19:51 50.10079 9.32072 7832 ft 204 kts 304°
2026-05-05 19:51 50.10949 9.30333 7836 ft 203 kts 304°
2026-05-05 19:52 50.11809 9.28603 7834 ft 201 kts 304°
2026-05-05 19:52 50.12657 9.26888 7820 ft 199 kts 303°
2026-05-05 19:52 50.13484 9.25213 7826 ft 197 kts 303°
2026-05-05 19:52 50.14315 9.23530 7839 ft 196 kts 303°
2026-05-05 19:53 50.15167 9.21800 7840 ft 205 kts 303°
2026-05-05 19:53 50.16051 9.19991 7856 ft 216 kts 303°
2026-05-05 19:53 50.16983 9.18069 7856 ft 227 kts 302°
2026-05-05 19:53 50.17522 9.15795 7860 ft 227 kts 266°
2026-05-05 19:54 50.17229 9.13368 7875 ft 231 kts 255°
2026-05-05 19:54 50.16855 9.10906 7867 ft 236 kts 255°
2026-05-05 19:54 50.16447 9.08410 7851 ft 239 kts 254°
2026-05-05 19:54 50.16013 9.05899 7844 ft 241 kts 253°
2026-05-05 19:55 50.15567 9.03404 7848 ft 234 kts 253°
2026-05-05 19:55 50.15131 9.00995 7716 ft 230 kts 253°
2026-05-05 19:55 50.14711 8.98706 7054 ft 225 kts 253°
2026-05-05 19:55 50.14277 8.96348 6357 ft 225 kts 252°
2026-05-05 19:56 50.13504 8.94271 5632 ft 223 kts 225°
2026-05-05 19:56 50.12453 8.92518 4924 ft 220 kts 240°
2026-05-05 19:56 50.11775 8.90364 4243 ft 213 kts 244°
2026-05-05 19:56 50.11131 8.88299 3858 ft 202 kts 244°
2026-05-05 19:57 50.10607 8.86463 3938 ft 173 kts 248°
2026-05-05 19:57 50.10327 8.85367 3969 ft 156 kts 249°
2026-05-05 19:57 50.09879 8.83440 3705 ft 133 kts 250°
2026-05-05 19:57 50.09584 8.82140 3527 ft 122 kts 250°
2026-05-05 19:58 50.09297 8.80899 3394 ft 122 kts 250°
2026-05-05 19:58 50.09003 8.79652 3232 ft 123 kts 249°
2026-05-05 19:58 50.08715 8.78442 3061 ft 115 kts 249°
2026-05-05 19:58 50.08445 8.77322 2900 ft 107 kts 250°
2026-05-05 19:59 50.08179 8.76205 2778 ft 115 kts 250°
2026-05-05 19:59 50.07898 8.75014 2626 ft 119 kts 249°
2026-05-05 19:59 50.07610 8.73790 2466 ft 122 kts 249°
2026-05-05 19:59 50.07311 8.72534 2295 ft 125 kts 249°
2026-05-05 20:00 50.07007 8.71262 2120 ft 122 kts 249°
2026-05-05 20:00 50.06724 8.70066 1944 ft 113 kts 249°
2026-05-05 20:00 50.06459 8.68951 1795 ft 107 kts 249°
2026-05-05 20:00 50.06207 8.67896 1660 ft 106 kts 248°
2026-05-05 20:01 50.05952 8.66821 1512 ft 108 kts 248°
2026-05-05 20:01 50.05685 8.65709 1386 ft 111 kts 249°
2026-05-05 20:01 50.05406 8.64546 1233 ft 118 kts 249°
2026-05-05 20:01 50.05114 8.63321 1087 ft 123 kts 249°
2026-05-05 20:02 50.04819 8.62081 947 ft 118 kts 249°
2026-05-05 20:02 50.04540 8.60898 749 ft 114 kts 249°
2026-05-05 20:02 50.04271 8.59748 543 ft 112 kts 249°
2026-05-05 20:02 50.04009 8.58669 395 ft 110 kts 247°
2026-05-05 20:03 50.03709 8.57420 553 ft 142 kts 248°
2026-05-05 20:03 50.03319 8.55813 1051 ft 172 kts 249°
2026-05-05 20:03 50.02878 8.53911 1521 ft 205 kts 249°
2026-05-05 20:03 50.02106 8.51834 1863 ft 242 kts 225°
2026-05-05 20:04 50.00484 8.50379 2354 ft 299 kts 196°
2026-05-05 20:04 49.98344 8.50366 3041 ft 295 kts 166°
2026-05-05 20:04 49.96550 8.51412 3651 ft 261 kts 159°
2026-05-05 20:04 49.94882 8.52548 3862 ft 266 kts 158°
2026-05-05 20:05 49.93125 8.53708 3845 ft 275 kts 162°
2026-05-05 20:05 49.91333 8.54676 4432 ft 266 kts 163°
2026-05-05 20:05 49.89620 8.55568 4731 ft 256 kts 164°
2026-05-05 20:05 49.87932 8.56434 4862 ft 256 kts 164°
2026-05-05 20:06 49.86238 8.57298 4917 ft 256 kts 164°
2026-05-05 20:06 49.84568 8.58149 4941 ft 256 kts 164°
2026-05-05 20:06 49.82851 8.59029 4963 ft 257 kts 164°
2026-05-05 20:06 49.81157 8.59899 4963 ft 257 kts 164°
2026-05-05 20:07 49.79458 8.60773 4967 ft 258 kts 164°
2026-05-05 20:07 49.77771 8.61644 4969 ft 258 kts 164°
2026-05-05 20:07 49.76066 8.62540 4967 ft 259 kts 161°
2026-05-05 20:07 49.74623 8.64186 4968 ft 266 kts 128°
2026-05-05 20:08 49.74007 8.66879 4975 ft 272 kts 94°
2026-05-05 20:08 49.74391 8.69726 4973 ft 274 kts 62°
2026-05-05 20:08 49.75558 8.72047 4988 ft 274 kts 47°
2026-05-05 20:08 49.76842 8.74229 4987 ft 274 kts 47°
2026-05-05 20:09 49.78144 8.76388 4986 ft 275 kts 46°
2026-05-05 20:09 49.79025 8.77812 4986 ft 276 kts 45°
2026-05-05 20:09 49.80360 8.79944 4983 ft 276 kts 45°
2026-05-05 20:09 49.81702 8.82073 4973 ft 276 kts 45°
2026-05-05 20:10 49.83045 8.84197 4971 ft 276 kts 44°
2026-05-05 20:10 49.84828 8.87010 4968 ft 276 kts 44°
2026-05-05 20:10 49.85739 8.88445 4967 ft 276 kts 44°
2026-05-05 20:10 49.87082 8.90561 4969 ft 276 kts 44°
2026-05-05 20:11 49.88427 8.92680 4966 ft 276 kts 44°
2026-05-05 20:11 49.89757 8.94777 4967 ft 276 kts 44°
2026-05-05 20:11 49.91103 8.96900 4973 ft 276 kts 44°
2026-05-05 20:11 49.92449 8.99022 4972 ft 276 kts 44°
2026-05-05 20:12 49.93794 9.01144 4964 ft 276 kts 44°
2026-05-05 20:12 49.95148 9.03250 4964 ft 275 kts 41°
2026-05-05 20:12 49.96808 9.04601 4966 ft 269 kts
2026-05-05 20:12 49.98653 9.05015 4972 ft 268 kts
2026-05-05 20:13 50.00498 9.05433 4971 ft 265 kts
2026-05-05 20:13 50.02297 9.05812 4965 ft 256 kts
2026-05-05 20:13 50.03994 9.06151 4954 ft 239 kts
2026-05-05 20:13 50.05597 9.06466 4948 ft 232 kts
2026-05-05 20:14 50.07196 9.06779 4950 ft 225 kts
2026-05-05 20:14 50.08716 9.07077 4946 ft 220 kts
2026-05-05 20:14 50.10249 9.07378 4954 ft 225 kts
2026-05-05 20:14 50.11769 9.07386 4948 ft 215 kts 338°
2026-05-05 20:15 50.12978 9.05894 4983 ft 228 kts 297°
2026-05-05 20:15 50.13383 9.03602 4994 ft 217 kts 273°
2026-05-05 20:15 50.13245 9.01399 5005 ft 191 kts 257°
2026-05-05 20:15 50.12995 8.99530 5028 ft 164 kts 257°
2026-05-05 20:16 50.12740 8.97767 5026 ft 166 kts 256°
2026-05-05 20:16 50.12466 8.96024 5008 ft 166 kts 255°
2026-05-05 20:16 50.12178 8.94273 4931 ft 171 kts 254°
2026-05-05 20:16 50.11870 8.92461 4791 ft 175 kts 254°
2026-05-05 20:17 50.11531 8.90624 4707 ft 176 kts 252°
2026-05-05 20:17 50.11165 8.88764 4424 ft 181 kts 251°
2026-05-05 20:17 50.10749 8.86903 4184 ft 182 kts 249°
2026-05-05 20:17 50.10311 8.85105 3945 ft 174 kts 249°
2026-05-05 20:18 50.09890 8.83397 3719 ft 169 kts 249°
2026-05-05 20:18 50.09481 8.81698 3503 ft 165 kts 249°
2026-05-05 20:18 50.09085 8.80030 3275 ft 163 kts 249°
2026-05-05 20:18 50.08697 8.78381 3063 ft 161 kts 249°
2026-05-05 20:19 50.08309 8.76748 2849 ft 160 kts 249°
2026-05-05 20:19 50.07917 8.75094 2628 ft 165 kts 249°
2026-05-05 20:19 50.07517 8.73404 2413 ft 167 kts 249°
2026-05-05 20:19 50.07110 8.71695 2183 ft 169 kts 249°
2026-05-05 20:20 50.06708 8.70009 1958 ft 165 kts 249°
2026-05-05 20:20 50.06330 8.68417 1756 ft 147 kts 249°
2026-05-05 20:20 50.06004 8.67047 1554 ft 121 kts 249°
2026-05-05 20:20 50.05734 8.65904 1379 ft 108 kts 248°
2026-05-05 20:21 50.05478 8.64858 1285 ft 106 kts 248°
2026-05-05 20:21 50.05208 8.63754 1164 ft 112 kts 248°
2026-05-05 20:21 50.04941 8.62621 970 ft 110 kts 249°
2026-05-05 20:21 50.04684 8.61505 787 ft 108 kts 250°
2026-05-05 20:22 50.04425 8.60414 642 ft 107 kts 248°
2026-05-05 20:22 50.04162 8.59319 513 ft 107 kts 249°
2026-05-05 20:22 50.03912 8.58262 384 ft 102 kts 248°
2026-05-05 20:22 50.03684 8.57310 359 ft 84 kts 249°
2026-05-05 20:23 50.03506 8.56574 357 ft 59 kts 250°
2026-05-05 20:23 50.03390 8.56086 354 ft 43 kts 249°
2026-05-05 20:23 50.03281 8.55680 350 ft 38 kts 238°
2026-05-05 20:23 50.03165 8.55486 346 ft 18 kts 216°
2026-05-05 20:24 50.03088 8.55390 346 ft 11 kts 224°
2026-05-05 20:24 50.03022 8.55288 341 ft 17 kts 230°
2026-05-05 20:24 50.02964 8.55104 339 ft 19 kts 250°
2026-05-05 20:24 50.02922 8.54921 338 ft 17 kts 251°
2026-05-05 20:25 50.02881 8.54744 338 ft 20 kts 249°
2026-05-05 20:25 50.02830 8.54538 340 ft 21 kts 251°
2026-05-05 20:25 50.02774 8.54307 338 ft 24 kts 248°
2026-05-05 20:25 50.02709 8.54033 332 ft 29 kts 251°
2026-05-05 20:26 50.02642 8.53750 332 ft 26 kts 244°
2026-05-05 20:26 50.02524 8.53592 335 ft 21 kts 236°
2026-05-05 20:26 50.02475 8.53398 336 ft 18 kts 254°
2026-05-05 20:26 50.02433 8.53224 334 ft 18 kts 248°
2026-05-05 20:27 50.02385 8.53026 334 ft 22 kts 250°
2026-05-05 20:27 50.02313 8.52836 333 ft 20 kts 195°
2026-05-05 20:27 50.02183 8.52831 334 ft 17 kts 178°
2026-05-05 20:27 50.02150 8.52971 335 ft 15 kts 85°
2026-05-05 20:28 50.02164 8.53131 332 ft 14 kts 71°
2026-05-05 20:28 50.02171 8.53164 331 ft 0 kts 69°